Lapse_Rate
6.5 6.5 6.5 6.5 6.5 6.5 6.5 6.5 6.5 6.5 6.5 6.5 6.5 6.5 5.8 3.8 5.7 3.7 3.6 3.6 2.8 2.5 2.1 2.2 2.7 2.1 1.7 1.1 1.6 2.0 3.1 4.2 4.4 4.4 4.8 4.7 4.8 4.8 5.4 5.6 5.7 5.6 5.9 5.2
6.5 6.5 6.5 6.5 6.5 6.5 6.5 6.5 6.5 6.5 6.5 6.5 5.7 4.2 4.0 4.0 3.7 3.9 3.5 3.1 3.1 2.2 2.2 2.7 2.1 1.3 1.1 1.1 1.9 3.3 4.3 4.4 4.4 4.9 5.0 4.6 5.0 5.2 5.7 7.1 6.6 6.0 6.1 5.6
6.5 6.5 6.5 6.5 6.5 6.5 6.5 6.5 6.5 6.5 6.5 6.5 6.5 6.2 5.2 3.6 3.5 3.7 3.1 3.4 2.7 1.8 1.7 1.6 1.5 0.9 0.9 1.9 3.1 3.8 4.4 4.4 4.7 4.8 4.7 4.7 5.8 7.1 8.2 6.9 6.7 6.6 5.0 5.7
6.5 6.5 6.5 6.5 6.5 6.5 6.5 6.5 6.5 6.5 6.5 6.3 6.1 4.9 3.8 3.8 3.7 3.8 3.5 3.1 2.9 2.4 1.0 0.3 0.5 0.9 1.6 3.2 3.8 3.7 3.6 4.4 5.2 5.4 6.0 7.0 7.7 6.9 5.6 6.1 5.6 5.1 5.3 5.6
6.5 6.5 6.5 6.5 6.5 6.5 6.5 6.5 6.5 6.5 6.5 5.8 5.0 4.1 4.9 3.9 2.1 1.9 1.1 0.4 -0.3 -0.6 -0.4 0.3 1.3 2.3 2.7 3.2 3.4 3.7 4.2 4.7 5.1 6.1 7.0 6.5 4.9 5.1 5.8 5.6 5.7 5.4 5.7 5.3
6.5 6.5 6.5 6.5 6.5 5.4 6.3 6.5 6.3 5.7 6.3 6.1 5.3 6.5 6.5 3.5 1.2 -0.5 -0.9 -0.9 -1.5 -1.3 -1.4 -0.7 0.9 1.5 1.6 2.9 3.7 3.7 5.0 6.4 7.1 6.2 4.5 4.3 5.9 5.8 5.5 5.2 5.1 5.0 4.8 4.7
6.5 6.5 6.5 6.5 6.2 5.6 6.5 6.5 5.6 4.6 4.9 5.3 6.4 4.9 4.4 1.9 0.4 -0.3 -0.7 -0.7 -0.6 -1.1 -1.0 0.6 2.4 3.0 3.0 4.0 4.1 6.0 6.6 6.1 5.0 4.9 6.0 6.4 5.6 5.0 4.6 4.4 4.5 4.0 4.0 3.5
6.5 6.5 6.5 5.8 6.3 6.5 6.0 5.1 4.1 4.2 4.4 4.0 3.5 3.9 4.0 2.6 1.9 1.1 -0.0 0.8 1.2 1.0 2.6 3.7 4.1 4.0 4.6 4.9 5.8 5.8 5.1 5.3 5.3 5.1 5.2 5.3 4.1 3.4 3.8 3.8 3.6 3.8 1.8 3.0
6.5 6.5 6.2 4.7 4.5 3.9 3.7 4.0 4.6 3.1 4.0 3.3 2.6 2.3 2.1 1.7 1.5 1.7 1.7 1.9 3.4 3.7 4.0 4.6 4.8 4.6 4.5 5.2 5.3 5.6 5.4 4.9 4.7 4.2 4.1 4.0 3.5 3.1 3.3 3.5 2.4 3.0 3.2 2.9
6.5 6.5 6.4 5.4 4.6 3.9 2.7 1.9 2.4 2.9 2.9 2.5 1.6 2.6 2.4 2.9 3.2 3.1 4.3 4.6 4.7 4.8 5.0 4.9 5.4 5.8 5.8 5.7 5.2 4.9 4.6 4.2 3.6 3.3 3.2 3.2 3.2 3.1 2.9 1.0 0.5 2.5 2.8 3.1
6.5 6.5 6.1 5.6 5.4 4.0 3.0 2.2 1.2 1.3 1.5 1.2 0.9 3.1 3.3 4.2 5.1 5.3 5.3 5.3 5.5 5.5 5.7 5.9 5.7 5.2 5.1 5.3 5.2 4.7 4.1 3.9 3.6 3.3 3.1 2.9 2.9 3.0 2.9 2.4 2.4 2.8 2.6 2.8
6.5 5.7 5.5 5.6 5.0 4.1 2.8 3.1 2.7 1.3 2.0 3.0 2.8 3.5 4.0 4.5 5.5 5.5 5.7 6.0 5.9 5.4 5.0 5.1 5.2 5.2 5.0 5.0 5.0 4.8 4.4 3.9 3.1 2.6 2.5 3.0 3.4 4.2 3.9 3.9 3.9 4.3 4.6 3.3
5.6 3.8 3.0 3.9 3.6 3.2 1.5 2.6 2.8 2.0 2.4 2.4 3.4 3.3 3.8 4.4 5.2 5.2 4.9 5.1 5.0 4.9 4.5 4.1 4.0 4.2 4.2 3.8 3.7 3.7 3.4 3.6 3.5 3.7 4.0 4.0 4.4 4.5 4.9 5.5 4.7 4.9 5.2 5.7
2.5 3.4 5.6 4.9 4.4 4.0 2.9 3.4 3.5 3.8 4.1 4.1 4.0 3.9 4.0 4.4 4.7 4.4 4.3 4.5 4.4 4.0 3.6 3.2 3.2 3.3 3.6 3.7 3.5 3.4 3.7 3.8 3.9 4.2 4.4 4.8 4.6 4.6 5.2 5.4 5.7 5.6 4.7 5.0
4.4 3.3 3.3 4.8 5.0 4.7 4.4 4.7 4.7 4.8 4.7 4.5 4.3 4.3 4.7 4.5 4.1 3.7 3.4 3.0 2.8 2.3 2.4 2.9 3.0 3.6 4.1 4.4 4.8 5.0 5.2 5.2 5.2 5.2 5.0 5.2 6.1 6.5 7.0 7.3 7.3 6.9 6.9 3.5
4.2 3.4 5.1 4.9 5.6 5.7 5.2 5.2 4.8 4.5 4.3 4.2 3.7 3.6 4.1 3.7 3.4 3.1 2.6 1.3 1.6 2.4 3.9 3.2 3.0 3.9 4.6 5.3 4.8 4.5 4.3 4.1 4.5 5.6 5.9 6.1 6.3 6.6 7.5 8.0 8.0 7.2 6.8 5.0
5.8 6.4 5.8 6.3 6.3 6.1 5.5 5.2 4.8 4.0 3.0 2.0 1.9 2.7 3.0 2.8 2.7 2.6 2.4 1.7 0.9 2.9 3.5 3.5 3.4 4.4 4.2 3.6 3.4 3.4 3.5 4.2 4.5 5.6 6.0 6.1 6.1 6.6 7.1 7.2 7.1 7.7 7.5 4.9
4.4 5.8 6.1 6.2 6.3 5.5 5.0 4.2 3.0 2.5 2.4 2.5 2.4 1.0 0.0 0.5 1.9 2.3 1.5 1.3 1.2 1.8 3.4 3.7 3.5 3.3 3.6 4.0 3.7 3.9 4.2 4.8 5.4 6.8 7.2 6.8 6.9 7.2 7.1 7.3 7.4 7.6 6.8 4.7
5.8 6.4 6.5 6.0 5.4 4.4 3.5 2.9 2.2 2.4 2.0 1.2 0.9 0.5 0.2 -0.3 2.0 2.4 2.1 0.1 0.6 2.4 3.6 4.1 3.6 3.2 3.8 4.0 4.0 4.4 5.0 5.1 5.2 6.3 6.3 6.1 6.1 7.0 6.8 6.0 6.1 6.5 5.6 4.5
5.1 5.1 4.6 4.7 4.5 2.8 2.7 2.6 2.6 2.5 2.2 0.7 -0.7 -0.1 1.3 -0.3 -1.9 -0.6 1.5 2.3 3.1 4.3 5.6 4.2 3.8 3.8 4.4 4.5 3.9 4.7 3.8 4.5 4.2 4.5 4.3 4.7 5.8 5.9 6.7 6.3 5.0 4.7 4.3 4.4
4.6 4.3 3.9 3.3 2.6 2.8 2.7 2.5 2.3 2.3 1.9 -0.3 0.1 -1.4 -1.5 0.0 -0.5 -1.0 2.3 4.5 4.6 4.3 5.5 4.8 4.1 3.8 4.4 2.9 4.0 3.0 2.7 3.1 2.6 3.0 3.5 4.2 4.7 5.3 5.1 4.9 5.0 5.0 4.9 4.6
4.3 3.4 3.1 3.0 3.1 3.5 3.7 3.4 2.4 1.2 0.4 -1.1 -2.2 -2.7 -0.4 2.4 1.1 2.1 1.9 4.8 5.8 1.8 4.9 5.6 4.7 0.7 2.3 0.6 3.3 1.5 2.6 3.1 2.4 2.4 2.8 3.5 3.8 4.5 4.2 4.1 4.1 4.3 4.4 4.4
4.1 3.7 3.5 3.0 3.5 3.6 3.5 2.8 1.4 1.3 0.2 -0.4 -0.5 -0.2 1.7 3.4 3.7 2.6 3.6 6.0 6.3 4.1 6.1 4.5 2.1 -0.1 -0.9 -2.0 -2.2 -2.0 -1.8 0.3 1.8 1.9 2.8 3.1 3.4 4.0 4.1 4.3 4.2 4.2 4.4 4.3
5.2 5.2 4.6 4.3 3.6 4.1 3.9 4.6 4.9 3.4 1.2 1.3 -0.1 -1.0 3.0 1.4 0.7 4.6 5.2 3.3 1.4 0.6 0.7 1.6 0.6 0.6 -1.0 -3.2 -3.3 -3.0 -1.2 -1.4 -1.5 0.9 2.0 1.0 2.5 2.4 2.6 3.2 3.7 4.2 4.6 4.6
5.5 5.4 5.1 4.9 5.2 5.0 5.2 4.9 4.6 5.0 4.4 4.1 3.7 4.3 3.8 4.8 2.3 3.0 1.1 1.6 3.0 2.7 0.8 0.3 0.9 1.0 -1.7 -3.0 -3.1 -3.2 -1.7 -2.5 -2.5 1.2 -2.1 -0.3 1.2 1.2 1.2 2.2 2.7 3.7 4.0 4.1
5.3 5.0 4.8 4.7 4.0 4.3 4.2 4.0 3.2 2.8 2.7 1.4 1.9 -1.8 -1.1 2.7 3.2 3.1 1.1 0.8 2.2 2.4 0.4 -1.3 -2.2 -1.9 -1.8 1.0 -1.6 -2.2 -1.6 -0.6 -1.9 0.6 -2.5 -1.5 -0.4 0.3 0.2 1.1 1.8 2.1 3.0 3.7
4.8 4.1 4.1 3.9 3.8 3.3 2.8 2.2 1.3 1.2 0.5 -2.4 -0.3 -1.3 2.7 1.2 0.3 1.7 -1.5 -2.4 -1.9 -0.8 -2.2 -0.9 -1.9 -0.9 -0.7 -0.8 1.3 -0.1 -1.9 -3.2 -2.8 -1.2 -4.7 -4.1 -2.9 -1.5 -0.8 0.7 1.3 1.1 1.9 2.8
Wind_Speed
5 4 3 1 1 2 3 4 5 7 7 8 4 5 5 4 2 4 6 6 7 7 7 7 7 7 7 9 9 9 10 8 8 7 8 7 9 7 6 5 4 4 4 3
3 2 3 3 2 3 4 3 4 4 2 6 4 6 9 7 8 7 6 4 6 7 6 10 11 10 10 11 10 9 9 6 8 9 9 7 6 6 6 3 4 3 2 6
4 3 3 5 6 6 3 2 5 5 5 4 8 9 6 7 9 7 7 6 6 7 9 9 9 10 9 10 7 8 10 9 8 8 7 7 6 6 4 4 4 6 6 6
3 3 1 7 4 4 11 5 7 8 5 6 10 6 7 6 6 7 6 7 6 5 6 7 9 10 11 11 11 11 11 10 9 9 9 9 7 5 2 5 5 4 5 6
4 4 4 5 6 6 6 0 0 6 5 6 6 6 7 7 8 7 8 8 9 9 10 11 12 13 15 13 12 12 11 10 10 10 6 4 2 6 5 2 2 2 4 6
2 4 7 7 3 5 5 1 5 7 5 4 4 3 2 4 8 11 12 10 11 12 14 15 12 14 16 12 12 11 10 9 6 4 4 5 5 4 4 4 4 4 5 5
2 3 7 7 6 3 6 6 6 7 6 4 4 4 7 9 13 11 11 12 12 14 14 11 11 14 14 12 11 8 6 4 3 3 1 1 1 3 4 6 5 6 6 6
3 3 6 6 4 7 6 4 7 6 5 8 7 13 12 11 12 11 12 12 12 13 12 11 12 13 10 9 7 5 3 1 1 1 2 3 5 5 6 6 6 6 4 5
8 5 3 2 5 5 6 7 4 7 5 9 12 11 11 11 11 11 10 9 8 10 9 6 6 6 5 3 4 4 2 0 3 4 4 4 4 5 4 4 3 5 4 4
5 4 4 7 8 7 7 10 7 6 7 12 14 11 13 11 9 8 7 7 6 7 8 7 6 5 4 3 3 1 2 3 4 4 5 5 4 4 3 3 3 3 3 4
5 2 8 8 6 10 12 11 14 13 12 13 16 12 12 10 9 8 8 7 6 6 5 5 5 5 4 3 1 3 4 5 5 4 5 5 5 5 4 5 5 4 5 5
5 12 4 4 5 7 12 10 11 15 13 11 12 12 11 9 8 8 6 5 6 6 6 5 5 6 6 7 6 5 5 5 4 4 4 5 5 7 10 13 14 16 16 9
6 7 13 12 9 8 13 12 12 14 12 13 10 11 9 7 4 7 6 6 6 6 6 7 7 7 8 8 7 7 5 6 5 6 6 6 6 7 10 9 18 19 19 18
19 18 10 0 8 11 14 14 16 13 11 10 9 6 6 6 8 10 8 6 6 7 8 8 8 8 8 8 6 6 6 6 5 5 6 7 7 8 9 10 11 10 11 14
6 9 13 16 14 13 13 13 14 11 8 8 7 8 9 10 9 8 6 6 6 8 9 10 9 9 11 9 9 9 8 7 8 7 7 7 8 9 10 11 11 10 11 6
15 18 16 15 14 13 12 10 13 9 9 9 10 9 9 9 9 7 7 7 7 7 7 9 8 10 10 10 11 9 9 11 9 9 9 10 9 10 11 11 12 11 9 7
19 10 14 14 14 11 9 8 9 10 10 10 10 8 7 7 8 7 7 7 6 9 8 8 8 9 10 10 11 8 7 9 11 8 9 10 10 10 10 11 11 11 10 5
11 13 13 16 15 13 11 11 10 11 10 10 8 6 7 7 6 5 6 5 5 6 9 8 8 9 10 11 11 8 7 8 9 9 9 12 11 10 10 11 11 12 11 5
14 17 16 15 14 14 12 10 10 10 8 6 6 7 5 4 4 5 6 6 6 8 8 7 11 10 11 12 11 6 8 8 9 9 9 13 10 9 9 12 12 9 6 5
17 16 17 15 13 15 12 9 11 10 8 7 6 6 6 5 3 5 6 9 8 4 6 8 10 9 9 11 10 7 8 7 9 9 9 9 9 10 10 13 11 10 9 9
15 15 15 14 12 11 10 8 9 10 9 5 7 5 4 3 5 3 5 4 7 5 6 7 6 5 6 7 6 6 7 6 7 8 8 8 9 9 9 10 9 9 9 9
13 13 12 12 12 11 8 8 9 8 6 6 5 4 4 5 5 4 2 4 3 5 2 3 4 5 5 6 5 4 6 7 6 6 7 8 8 8 8 8 9 8 8 8
11 11 11 10 11 11 8 7 5 7 6 5 5 4 3 3 3 3 1 4 2 2 2 2 3 4 5 3 3 3 3 3 5 5 6 7 7 7 8 8 8 8 8 8
11 10 10 10 9 9 9 7 7 8 7 6 5 2 2 2 3 2 2 2 3 3 2 2 3 4 5 2 3 3 3 3 3 3 4 6 6 6 7 7 8 8 8 9
10 9 10 9 8 6 9 8 7 6 7 7 5 4 4 2 3 1 2 2 4 3 3 4 5 6 3 3 3 3 2 3 3 2 3 4 6 6 7 7 8 8 8 8
9 7 7 8 6 5 5 5 4 3 3 2 2 2 2 2 3 3 3 4 3 3 2 2 2 3 3 2 3 2 2 3 3 2 3 4 5 6 6 7 7 8 8 8
9 9 7 7 5 5 4 4 3 2 2 2 1 2 2 3 3 3 3 3 3 2 2 2 2 2 3 3 3 2 2 2 3 2 3 3 4 5 6 7 7 8 11 9
Wind_Direction
186 199 180 150 28 323 144 187 152 257 213 250 305 312 241 208 144 172 222 218 210 195 180 162 151 133 126 127 131 131 135 150 163 145 132 127 114 125 151 137 170 203 235 260
158 53 83 163 250 284 248 206 221 250 345 306 70 79 48 54 89 80 49 63 181 166 147 158 154 145 137 136 139 142 146 130 117 115 107 116 125 125 128 158 242 241 229 220
236 349 48 343 224 205 220 271 183 171 193 291 45 46 33 52 64 58 38 55 112 143 151 152 151 140 134 132 116 101 107 107 105 111 112 111 108 88 66 348 328 246 240 237
186 40 9 240 275 140 110 36 59 93 98 118 112 103 61 28 88 72 53 48 51 94 91 79 102 105 102 102 101 104 100 99 89 82 69 54 48 26 315 234 240 258 252 260
138 182 286 299 159 172 137 166 300 116 115 144 152 75 32 17 43 62 74 61 62 60 71 83 94 104 100 94 96 94 93 87 81 80 100 111 176 227 252 284 279 281 263 266
139 144 199 233 241 118 114 159 173 128 111 101 118 89 237 59 78 70 63 64 73 71 75 73 74 91 92 91 91 87 86 85 95 120 171 208 236 289 241 227 244 263 275 256
136 197 287 245 211 105 121 221 152 130 133 125 108 169 119 92 76 76 78 75 73 72 75 74 81 86 85 87 89 105 123 138 185 222 272 34 270 268 266 269 275 268 260 256
90 66 274 196 92 163 188 103 139 119 121 100 91 97 98 91 88 79 77 72 72 80 79 82 90 94 100 115 153 131 102 145 167 87 300 278 280 287 289 278 265 270 275 276
173 214 292 332 131 97 124 125 115 109 118 112 109 96 94 86 83 80 80 82 87 96 97 71 51 55 72 66 86 96 92 225 295 306 301 291 290 286 284 281 262 267 256 261
112 352 50 66 72 76 87 99 80 72 91 111 111 105 101 97 95 96 95 84 76 80 82 74 76 83 103 85 76 76 308 307 307 299 295 290 278 265 259 255 252 250 255 253
71 37 82 37 64 108 95 91 87 73 79 99 106 102 109 108 102 90 82 77 78 85 84 71 54 41 28 12 334 304 295 289 287 278 277 281 267 251 245 235 210 229 235 232
196 187 135 120 101 115 104 98 97 101 87 79 98 105 99 90 98 100 96 84 69 57 51 28 34 12 360 350 335 308 297 285 266 261 267 265 269 280 246 243 241 235 240 225
146 100 105 103 91 96 99 100 97 97 98 102 90 105 103 107 96 97 83 73 67 56 42 35 31 25 6 353 359 348 317 303 294 287 284 278 274 267 279 273 243 255 255 251
115 112 99 13 124 108 104 106 101 97 98 104 108 92 100 95 73 68 58 52 55 50 40 31 29 22 359 356 355 342 324 298 305 301 295 294 289 287 284 280 281 279 251 246
81 82 113 120 114 112 112 114 104 101 100 87 82 88 87 89 83 71 50 37 53 51 41 37 24 13 1 356 354 347 343 338 333 318 307 301 298 295 290 285 280 275 276 251
105 108 117 117 120 120 117 114 109 103 94 89 84 75 84 86 80 65 51 45 55 47 38 43 20 1 352 354 359 351 345 334 329 324 317 310 305 299 297 298 295 286 269 249
113 122 125 125 126 123 117 111 107 103 100 97 93 84 77 83 74 53 37 38 67 65 54 35 4 360 7 17 357 340 329 326 324 322 321 309 300 297 297 293 293 287 276 244
113 129 134 135 131 120 105 100 99 104 106 106 104 88 74 68 70 51 54 73 63 63 37 20 31 19 6 358 350 340 335 329 328 323 330 339 323 293 293 290 281 286 268 241
114 117 118 116 115 110 108 105 108 104 99 102 99 88 83 66 58 71 103 74 55 37 12 34 24 16 1 355 349 337 348 346 345 346 339 337 331 348 353 2 347 335 355 17
100 100 100 99 106 112 111 105 107 104 100 98 94 83 81 52 35 76 95 83 57 26 5 46 25 12 3 355 352 1 347 351 351 344 341 339 349 348 356 5 7 8 11 5
105 104 103 104 99 100 107 114 115 111 109 98 101 109 110 77 64 87 64 63 41 10 16 47 31 12 12 357 6 1 348 6 354 346 343 345 347 350 360 357 360 358 359 2
112 109 110 112 111 109 109 109 111 116 116 106 95 89 84 76 67 98 86 73 34 11 5 48 32 17 14 0 12 0 357 1 348 346 346 349 345 351 351 352 352 350 352 354
116 118 114 115 123 121 114 111 112 126 120 112 107 94 81 82 109 94 59 51 38 14 31 44 11 26 14 6 350 350 342 335 339 347 344 347 339 350 343 345 343 340 344 345
116 121 121 116 113 122 129 124 110 117 111 107 95 89 76 99 13 37 69 63 62 42 32 4 21 32 21 5 356 352 345 335 325 329 337 339 333 342 337 338 337 336 340 339
120 120 127 122 110 100 111 113 97 92 107 91 60 54 37 87 136 206 66 20 33 43 8 8 25 21 7 358 352 348 346 324 320 341 333 334 335 336 330 331 331 332 332 333
105 101 96 93 94 90 89 96 93 72 109 79 5 12 355 70 88 82 58 27 14 20 19 353 25 15 349 327 340 340 343 331 337 5 339 331 325 330 322 322 327 329 325 326
96 98 99 87 72 73 79 79 88 79 133 141 232 314 96 93 83 80 58 22 3 348 8 348 4 346 334 327 331 317 314 310 328 16 332 320 317 319 317 317 320 319 317 321